| time (UTC) | temp F | wind direction | speed MPH | gust MPH | rain 1hr in | rain 24hr in | rain mn in | humidity % | barometer mb |
| 20260502195536 | 64 | 228 | 2.0 | 6.0 | 0.00 | 0.00 | 0.00 | 29 | |
| 20260502194526 | 65 | 235 | 2.0 | 7.0 | 0.00 | 0.00 | 0.00 | 28 | |
| 20260502193537 | 66 | 228 | 1.0 | 3.0 | 0.00 | 0.00 | 0.00 | 28 | |
| 20260502192526 | 65 | 223 | 1.0 | 3.0 | 0.00 | 0.00 | 0.00 | 29 | |
| 20260502191537 | 65 | 234 | 2.0 | 6.0 | 0.00 | 0.00 | 0.00 | 29 | |
| 20260502190526 | 64 | 173 | 2.0 | 6.0 | 0.00 | 0.00 | 0.00 | 29 | |
| 20260502185537 | 62 | 244 | 1.0 | 5.0 | 0.00 | 0.00 | 0.00 | 31 | |
| 20260502184526 | 61 | 225 | 2.0 | 5.0 | 0.00 | 0.00 | 0.00 | 30 | |
| 20260502183536 | 62 | 224 | 2.0 | 9.0 | 0.00 | 0.00 | 0.00 | 30 | |
| 20260502182526 | 63 | 221 | 2.0 | 7.0 | 0.00 | 0.00 | 0.00 | 29 | |
| 20260502181536 | 63 | 214 | 2.0 | 6.0 | 0.00 | 0.00 | 0.00 | 29 | |
| 20260502180526 | 63 | 207 | 1.0 | 3.0 | 0.00 | 0.00 | 0.00 | 29 | |
| 20260502163536 | 60 | 230 | 1.0 | 5.0 | 0.00 | 0.00 | 0.00 | 29 | |
| 20260502162547 | 59 | 215 | 1.0 | 5.0 | 0.00 | 0.00 | 0.00 | 29 | |
| 20260502161537 | 60 | 223 | 2.0 | 5.0 | 0.00 | 0.00 | 0.00 | 28 | |
| 20260502160526 | 59 | 241 | 2.0 | 8.0 | 0.00 | 0.00 | 0.00 | 29 | |
| 20260502151537 | 55 | 204 | 2.0 | 5.0 | 0.00 | 0.00 | 0.00 | 32 | |
| 20260502150547 | 54 | 246 | 2.0 | 6.0 | 0.00 | 0.00 | 0.00 | 33 | |
| 20260502130527 | 42 | 0.0 | 0.0 | 0.00 | 0.00 | 0.00 | 51 | ||
| 20260502123539 | 35 | 0.0 | 0.0 | 0.00 | 0.00 | 0.00 | 72 | ||
| 20260502122527 | 32 | 0.0 | 0.0 | 0.00 | 0.00 | 0.00 | 76 | ||
| 20260502121519 | 30 | 0.0 | 0.0 | 0.00 | 0.00 | 0.00 | 76 | ||
| 20260502120527 | 29 | 0.0 | 0.0 | 0.00 | 0.00 | 0.00 | 76 | ||
| 20260502115519 | 28 | 0.0 | 0.0 | 0.00 | 0.00 | 0.00 | 74 | ||
| 20260502114547 | 28 | 0.0 | 0.0 | 0.00 | 0.00 | 0.00 | 76 | ||
| 20260502113519 | 27 | 0.0 | 0.0 | 0.00 | 0.00 | 0.00 | 76 | ||
| 20260502112527 | 27 | 0.0 | 0.0 | 0.00 | 0.00 | 0.00 | 78 | ||
| 20260502111519 | 27 | 0.0 | 0.0 | 0.00 | 0.00 | 0.00 | 79 | ||
| 20260502110527 | 27 | 0.0 | 0.0 | 0.00 | 0.00 | 0.00 | 79 | ||
| 20260502105519 | 27 | 0.0 | 0.0 | 0.00 | 0.00 | 0.00 | 80 | ||
| 20260502104527 | 26 | 0.0 | 0.0 | 0.00 | 0.00 | 0.00 | 79 | ||
| 20260502103540 | 26 | 0.0 | 0.0 | 0.00 | 0.00 | 0.00 | 85 | ||
| 20260502102527 | 26 | 0.0 | 0.0 | 0.00 | 0.00 | 0.00 | 82 | ||
| 20260502101519 | 26 | 0.0 | 0.0 | 0.00 | 0.00 | 0.00 | 83 | ||
| 20260502100529 | 27 | 0.0 | 0.0 | 0.00 | 0.00 | 0.00 | 81 | ||
| 20260502091520 | 28 | 0.0 | 0.0 | 0.00 | 0.00 | 0.00 | 74 | ||
| 20260502090527 | 28 | 0.0 | 0.0 | 0.00 | 0.00 | 0.00 | 74 | ||
| 20260502071519 | 30 | 0.0 | 0.0 | 0.00 | 0.00 | 0.00 | 72 | ||
| 20260502070608 | 31 | 0.0 | 0.0 | 0.00 | 0.00 | 0.00 | 69 | ||
| 20260502065540 | 31 | 0.0 | 0.0 | 0.00 | 0.00 | 0.00 | 68 | ||
| 20260502064527 | 31 | 0.0 | 0.0 | 0.00 | 0.00 | 0.00 | 69 | ||
| 20260502063520 | 31 | 215 | 0.0 | 1.0 | 0.00 | 0.00 | 0.00 | 69 | |
| 20260502062528 | 31 | 0.0 | 0.0 | 0.00 | 0.00 | 0.00 | 64 | ||
| 20260502061520 | 32 | 0.0 | 0.0 | 0.00 | 0.00 | 0.00 | 63 | ||
| 20260502060529 | 33 | 0.0 | 0.0 | 0.00 | 0.00 | 0.00 | 63 | ||
| 20260502055520 | 33 | 0.0 | 0.0 | 0.00 | 0.00 | 0.00 | 58 | ||
| 20260502054528 | 33 | 0.0 | 0.0 | 0.00 | 0.00 | 0.00 | 59 | ||
| 20260502053520 | 33 | 0.0 | 0.0 | 0.00 | 0.00 | 0.00 | 59 | ||
| 20260502052528 | 34 | 0.0 | 0.0 | 0.00 | 0.00 | 0.00 | 58 | ||
| 20260502051520 | 34 | 0.0 | 0.0 | 0.00 | 0.00 | 0.00 | 56 | ||
| 20260502050528 | 35 | 0.0 | 0.0 | 0.00 | 0.00 | 0.00 | 57 | ||
| 20260502045520 | 35 | 0.0 | 0.0 | 0.00 | 0.00 | 0.00 | 55 | ||
| 20260502044548 | 36 | 0.0 | 0.0 | 0.00 | 0.00 | 0.00 | 55 | ||
| 20260502043520 | 35 | 0.0 | 0.0 | 0.00 | 0.00 | 0.00 | 59 | ||
| 20260502042528 | 36 | 0.0 | 0.0 | 0.00 | 0.00 | 0.00 | 63 | ||
| 20260502041540 | 37 | 0.0 | 0.0 | 0.00 | 0.00 | 0.00 | 60 | ||
| 20260502040528 | 38 | 0.0 | 0.0 | 0.00 | 0.00 | 0.00 | 48 | ||
| 20260502035520 | 39 | 0.0 | 0.0 | 0.00 | 0.00 | 0.00 | 49 | ||
| 20260502034528 | 39 | 0.0 | 0.0 | 0.00 | 0.00 | 0.00 | 47 | ||
| 20260502033602 | 39 | 0.0 | 0.0 | 0.00 | 0.00 | 0.00 | 47 | ||
| 20260502032548 | 40 | 0.0 | 0.0 | 0.00 | 0.00 | 0.00 | 45 | ||
| 20260502031520 | 42 | 0.0 | 0.0 | 0.00 | 0.00 | 0.00 | 43 | ||
| 20260502030528 | 41 | 0.0 | 0.0 | 0.00 | 0.00 | 0.00 | 42 | ||
| 20260502025520 | 42 | 0.0 | 0.0 | 0.00 | 0.00 | 0.00 | 42 | ||
| 20260502024537 | 42 | 0.0 | 0.0 | 0.00 | 0.00 | 0.00 | 42 | ||
| 20260502023537 | 43 | 0.0 | 0.0 | 0.00 | 0.00 | 0.00 | 40 | ||
| 20260502022549 | 43 | 0.0 | 0.0 | 0.00 | 0.00 | 0.00 | 40 | ||
| 20260502021537 | 44 | 0.0 | 0.0 | 0.00 | 0.00 | 0.00 | 40 | ||
| 20260502020528 | 44 | 0.0 | 0.0 | 0.00 | 0.00 | 0.00 | 39 | ||
| 20260502015520 | 45 | 223 | 0.0 | 1.0 | 0.00 | 0.00 | 0.00 | 37 | |
| 20260502014528 | 46 | 0.0 | 0.0 | 0.00 | 0.00 | 0.00 | 36 | ||
| 20260502013540 | 47 | 253 | 0.0 | 1.0 | 0.00 | 0.00 | 0.00 | 36 | |
| 20260502012529 | 48 | 293 | 0.0 | 1.0 | 0.00 | 0.00 | 0.00 | 34 | |
| 20260502011523 | 48 | 0.0 | 0.0 | 0.00 | 0.00 | 0.00 | 33 | ||
| 20260502010528 | 49 | 300 | 0.0 | 1.0 | 0.00 | 0.00 | 0.00 | 33 | |
| 20260502005520 | 50 | 317 | 1.0 | 2.0 | 0.00 | 0.00 | 0.00 | 31 | |
| 20260502004528 | 51 | 358 | 1.0 | 6.0 | 0.00 | 0.00 | 0.00 | 30 | |
| 20260502003521 | 51 | 317 | 1.0 | 2.0 | 0.00 | 0.00 | 0.00 | 29 | |
| 20260502002529 | 51 | 313 | 0.0 | 2.0 | 0.00 | 0.00 | 0.00 | 30 | |
| 20260502001520 | 51 | 287 | 0.0 | 1.0 | 0.00 | 0.00 | 0.00 | 28 | |
| 20260502000528 | 52 | 334 | 1.0 | 6.0 | 0.00 | 0.00 | 0.00 | 29 | |
| 20260501235521 | 52 | 335 | 1.0 | 6.0 | 0.00 | 0.00 | 0.00 | 28 | |
| 20260501234528 | 53 | 338 | 1.0 | 5.0 | 0.00 | 0.00 | 0.00 | 28 | |
| 20260501233521 | 53 | 292 | 1.0 | 2.0 | 0.00 | 0.00 | 0.00 | 27 | |
| 20260501232528 | 53 | 330 | 1.0 | 6.0 | 0.00 | 0.00 | 0.00 | 27 | |
| 20260501231521 | 52 | 342 | 1.0 | 5.0 | 0.00 | 0.00 | 0.00 | 28 | |
| 20260501230530 | 52 | 338 | 1.0 | 2.0 | 0.00 | 0.00 | 0.00 | 29 | |
| 20260501225521 | 53 | 307 | 1.0 | 2.0 | 0.00 | 0.00 | 0.00 | 28 | |
| 20260501224529 | 55 | 336 | 3.0 | 7.0 | 0.00 | 0.00 | 0.00 | 25 | |
| 20260501223520 | 55 | 329 | 2.0 | 5.0 | 0.00 | 0.00 | 0.00 | 25 | |
| 20260501222549 | 52 | 342 | 1.0 | 6.0 | 0.00 | 0.00 | 0.00 | 28 | |
| 20260501221521 | 54 | 332 | 2.0 | 5.0 | 0.00 | 0.00 | 0.00 | 26 | |
| 20260501220529 | 53 | 290 | 2.0 | 5.0 | 0.00 | 0.00 | 0.00 | 26 | |
| 20260501215521 | 55 | 333 | 2.0 | 5.0 | 0.00 | 0.00 | 0.00 | 25 | |
| 20260501214549 | 56 | 353 | 3.0 | 8.0 | 0.00 | 0.00 | 0.00 | 25 | |
| 20260501213521 | 56 | 347 | 1.0 | 5.0 | 0.00 | 0.00 | 0.00 | 24 | |
| 20260501212529 | 55 | 340 | 1.0 | 6.0 | 0.00 | 0.00 | 0.00 | 25 | |
| 20260501211521 | 55 | 332 | 2.0 | 6.0 | 0.00 | 0.00 | 0.00 | 25 | |
| 20260501210529 | 55 | 25 | 2.0 | 5.0 | 0.00 | 0.00 | 0.00 | 25 | |
| 20260501205521 | 55 | 338 | 3.0 | 7.0 | 0.00 | 0.00 | 0.00 | 25 | |
| 20260501204529 | 54 | 340 | 2.0 | 5.0 | 0.00 | 0.00 | 0.00 | 25 | |
| 20260501203521 | 54 | 33 | 1.0 | 3.0 | 0.00 | 0.00 | 0.00 | 25 | |
| 20260501202529 | 54 | 1 | 2.0 | 7.0 | 0.00 | 0.00 | 0.00 | 25 | |
| 20260501201539 | 54 | 346 | 2.0 | 5.0 | 0.00 | 0.00 | 0.00 | 26 | |
| 20260501200529 | 53 | 339 | 2.0 | 9.0 | 0.00 | 0.00 | 0.00 | 27 |